Location: Cutler
(25.6150°N, 80.3110°W)
Time: 13:38:01
(UTC-04:00)

Cosmos 2360 Rocket - Visible Passes

Search period start: 24 May 2016 00:00
Search period end: 03 June 2016 00:00
Orbit: 836 x 844 km, 71.0° (Epoch: 24 May)

Date Brightness Start Highest point End Pass type
(mag) Time Alt. Az. Time Alt. Az. Time Alt. Az.
24 May 4.6 04:43:19 10° NNE 04:47:46 24° ENE 04:52:12 10° ESE visible
25 May 4.6 04:27:48 10° NNE 04:32:05 22° ENE 04:36:21 10° ESE visible
26 May 4.7 04:12:18 10° NNE 04:16:23 20° ENE 04:20:29 10° ESE visible
26 May 2.7 05:55:15 10° NW 06:00:23 37° WSW 06:05:31 10° S visible
27 May 4.7 03:56:48 10° NNE 04:00:42 19° ENE 04:04:36 10° ESE visible
27 May 2.6 05:39:31 10° NW 05:44:45 40° WSW 05:49:58 10° S visible
28 May 4.7 03:41:21 10° NNE 03:45:01 17° ENE 03:48:40 10° ESE visible
28 May 2.5 05:23:48 10° NW 05:29:06 44° WSW 05:34:25 10° S visible
29 May 4.8 03:25:54 10° NNE 03:29:19 16° ENE 03:32:44 10° E visible
29 May 2.4 05:08:05 10° NNW 05:13:28 48° WSW 05:18:50 10° S visible
30 May 4.8 03:10:30 10° NNE 03:13:37 15° ENE 03:16:45 10° E visible
30 May 2.3 04:52:23 10° NNW 04:57:49 52° WSW 05:02:31 14° S visible
31 May 4.9 02:55:07 10° NNE 02:57:56 14° ENE 03:00:43 10° E visible
31 May 2.2 04:36:41 10° NNW 04:42:10 56° WSW 04:44:09 37° SSW visible
01 Jun 4.9 02:39:49 10° NE 02:42:14 13° ENE 02:44:38 10° E visible
01 Jun 2.1 04:20:59 10° NNW 04:26:31 61° WSW 04:26:51 60° WSW visible
02 Jun 4.9 02:24:36 10° NE 02:26:32 12° ENE 02:28:23 10° E visible
02 Jun 2.3 04:05:18 10° NNW 04:10:03 58° WNW 04:10:03 58° WNW visible
